PUUANAHULU HI US current weather conditions

sailwx.info

Wind from 316 at 6 knots gusting 13

Air temperature 22.2° C
Dewpoint 17.4° C

Last reported at 2015-Apr-26 23:37 UTC.
Time now 2015-Apr-27 00:23 UTC

Location: N 19°50' W 155°46'.
View on Google Maps.

See reports from other nearby stations

  
Tides and Currents Weather Stations Pressure Air Temp Water Temp Dewpoint Dewpoint Depression Visibility Wind Speed Wind Dir Waves Ship Positions
date/time (UTC)wind fromknots sea level pressurealtimeterstation pressurevisibilityair tempwater tempwave heightnotes
2015-Apr-26 23:37 316 6 gusting 13 22.2
2015-Apr-26 22:37 296 8 gusting 14 23.9
2015-Apr-26 21:37 297 7 gusting 13 25.0
2015-Apr-26 20:37 310 4 gusting 11 25.0
2015-Apr-26 19:37 351 4 gusting 9 24.4
2015-Apr-26 18:37 340 2 gusting 6 22.8
2015-Apr-26 17:37 066 3 gusting 7 20.6
2015-Apr-26 16:37 129 6 gusting 8 16.1
2015-Apr-26 15:37 128 6 gusting 8 15.6
2015-Apr-26 14:37 129 6 gusting 8 15.0
2015-Apr-26 13:37 129 6 gusting 10 15.6
2015-Apr-26 12:37 133 4 gusting 6 15.6
2015-Apr-26 11:37 149 4 gusting 7 16.1
2015-Apr-26 10:37 157 3 gusting 5 16.1
2015-Apr-26 08:37 179 0 gusting 4 17.8
2015-Apr-26 07:37 036 1 gusting 2 18.3
2015-Apr-26 06:37 004 1 gusting 6 19.4
2015-Apr-26 05:37 308 4 gusting 6 19.4
2015-Apr-26 04:37 285 4 gusting 10 20.6
2015-Apr-26 03:37 268 5 gusting 11 22.8
2015-Apr-26 02:37 293 6 gusting 13 22.2
2015-Apr-26 01:37 290 6 gusting 12 22.8
2015-Apr-26 00:37 282 6 gusting 13 23.9
2015-Apr-25 23:37 285 7 gusting 15 23.9
2015-Apr-25 22:37 283 7 gusting 14 23.9
2015-Apr-25 21:37 309 7 gusting 13 25.0
2015-Apr-25 20:37 272 5 gusting 12 23.9
2015-Apr-25 19:37 279 5 gusting 8 23.3
2015-Apr-25 18:37 262 5 gusting 8 21.7
2015-Apr-25 17:37 151 5 gusting 12 20.0
2015-Apr-25 16:37 156 3 gusting 9 15.0
2015-Apr-25 15:37 135 6 gusting 10 14.4
2015-Apr-25 14:37 162 4 gusting 5 15.6
2015-Apr-25 13:37 138 4 gusting 5 15.0
2015-Apr-25 12:37 148 3 gusting 5 15.6
2015-Apr-25 11:37 126 3 gusting 7 16.1
2015-Apr-25 10:37 137 4 gusting 5 16.1
2015-Apr-25 09:37 211 3 gusting 5 17.2
2015-Apr-25 08:37 187 3 gusting 5 17.8
2015-Apr-25 07:37 242 2 gusting 7 18.3
2015-Apr-25 06:37 280 5 gusting 7 18.9
2015-Apr-25 05:37 279 5 gusting 6 18.9
2015-Apr-25 04:37 282 5 gusting 8 19.4
2015-Apr-25 03:37 264 5 gusting 12 20.6
2015-Apr-25 02:37 270 8 gusting 13 20.6
2015-Apr-25 01:37 276 8 gusting 13 23.3
2015-Apr-25 00:37 282 7 gusting 13 22.2